Biloxi, MS

5:26 PM CST on January 20, 2018 (GMT -0600)
Keesler Air Force Base

Weather History for KBIX - August, 2013

Change the Weather History Date:

Sunday, August 25, 2013

  Actual Average Record
Temperature  
Mean Temperature 80 °F -  
Max Temperature 86 °F 89 °F 97 °F (1983)
Min Temperature 75 °F 73 °F 64 °F (1966)
Cooling Degree Days 16    
Growing Degree Days 30 (Base 50)    
Moisture  
Dew Point 74 °F    
Average Humidity 87    
Maximum Humidity 94    
Minimum Humidity 66    
Precipitation  
Precipitation 0.08 in - - ()
Sea Level Pressure  
Sea Level Pressure 30.16 in    
Wind  
Wind Speed 8 mph (East)    
Max Wind Speed 13 mph    
Max Gust Speed 23 mph    
Visibility 9 miles    
Events Rain    
Averages and records for this station are not official NWS values.
T = Trace of Precipitation, MM = Missing Value Source: NWS Daily Summary

Daily Weather History Graph

Daily Weather History Graph

Search for Another Location

Airport or City:

Trip Planner

Search our weather history database for the weather conditions in past years. The results will help you decide how hot, cold, wet, or windy it might be!

Date:

Astronomy

Aug. 25, 2013 Rise Set
Actual Time 6:28 AM CDT 7:26 PM CDT
Civil Twilight 6:03 AM CDT 7:51 PM CDT
Nautical Twilight 5:34 AM CDT 8:20 PM CDT
Astronomical Twilight 5:04 AM CDT 8:50 PM CDT
Moon 10:23 PM CDT (8/25) 11:05 AM CDT (8/25)
Length of Visible Light 13h 47m
Length of Day
12h 57m
Waning Gibbous, 75% of the Moon is Illuminated
Aug 25
Waning Gibbous
Aug 28
Last Quarter
Sep 5
New
Sep 12
First Quarter
Sep 19
Full

Hourly Weather History & Observations

Time (CDT) Temp. Heat Index Dew Point Humidity Pressure Visibility Wind Dir Wind Speed Gust Speed Precip Events Conditions
12:58 AM 75.2 °F - 73.4 °F 94% 30.13 in 10.0 mi NE 6.9 mph - N/A   Partly Cloudy
1:58 AM 75.2 °F - 73.4 °F 94% 30.13 in 10.0 mi ENE 9.2 mph - N/A   Overcast
2:58 AM 77.0 °F - 73.4 °F 89% 30.11 in 10.0 mi East 4.6 mph - N/A   Overcast
3:58 AM 77.0 °F - 71.6 °F 83% 30.09 in 10.0 mi East 5.8 mph - N/A   Mostly Cloudy
4:58 AM 75.2 °F - 73.4 °F 94% 30.10 in 10.0 mi NE 6.9 mph - N/A   Clear
5:48 AM 75.2 °F - 73.4 °F 94% 30.13 in 10.0 mi ENE 6.9 mph - N/A   Mostly Cloudy
5:58 AM 75.2 °F - 73.4 °F 94% 30.13 in 10.0 mi ENE 8.1 mph - N/A   Mostly Cloudy
6:03 AM 75.2 °F - 73.4 °F 94% 30.12 in 10.0 mi ENE 6.9 mph - N/A   Scattered Clouds
6:23 AM 75.2 °F - 73.4 °F 94% 30.12 in 10.0 mi ENE 8.1 mph - N/A   Mostly Cloudy
6:58 AM 75.2 °F - 71.6 °F 89% 30.15 in 10.0 mi ENE 9.2 mph - N/A   Mostly Cloudy
7:03 AM 75.2 °F - 71.6 °F 89% 30.14 in 10.0 mi East 8.1 mph - N/A   Mostly Cloudy
7:12 AM 75.2 °F - 71.6 °F 89% 30.15 in 8.0 mi East 11.5 mph 18.4 mph N/A Rain Light Rain
7:17 AM 75.2 °F - 73.4 °F 94% 30.15 in 7.0 mi East 8.1 mph 18.4 mph N/A Rain Light Rain
7:37 AM 75.2 °F - 71.6 °F 89% 30.15 in 8.0 mi East 9.2 mph - N/A Rain Light Rain
7:40 AM 75.2 °F - 71.6 °F 89% 30.15 in 10.0 mi East 10.4 mph - N/A   Mostly Cloudy
7:58 AM 75.2 °F - 73.4 °F 94% 30.17 in 10.0 mi East 12.7 mph - 0.02 in   Mostly Cloudy
8:58 AM 75.2 °F - 73.4 °F 94% 30.16 in 10.0 mi East 8.1 mph - N/A   Partly Cloudy
9:38 AM 77.0 °F - 73.4 °F 89% 30.16 in 10.0 mi East 11.5 mph - N/A   Mostly Cloudy
9:43 AM 75.2 °F - 73.4 °F 94% 30.16 in 10.0 mi East 9.2 mph - N/A   Mostly Cloudy
9:58 AM 77.0 °F - 73.4 °F 89% 30.18 in 10.0 mi East 8.1 mph - N/A   Overcast
10:08 AM 77.0 °F - 73.4 °F 89% 30.17 in 10.0 mi East 8.1 mph - N/A   Mostly Cloudy
10:58 AM 78.8 °F - 73.4 °F 83% 30.20 in 10.0 mi East 9.2 mph - N/A   Partly Cloudy
11:08 AM 78.8 °F - 73.4 °F 83% 30.19 in 10.0 mi East 9.2 mph - N/A   Mostly Cloudy
11:18 AM 78.8 °F - 73.4 °F 83% 30.19 in 10.0 mi East 9.2 mph - N/A   Mostly Cloudy
11:23 AM 78.8 °F - 73.4 °F 83% 30.19 in 10.0 mi East 9.2 mph - N/A   Overcast
11:33 AM 78.8 °F - 73.4 °F 83% 30.19 in 10.0 mi East 10.4 mph - N/A   Mostly Cloudy
11:48 AM 80.6 °F 85.4 °F 73.4 °F 79% 30.18 in 10.0 mi East 8.1 mph - N/A   Mostly Cloudy
11:58 AM 80.6 °F 85.4 °F 73.4 °F 79% 30.19 in 10.0 mi East 10.4 mph - N/A   Mostly Cloudy
12:13 PM 82.4 °F 88.2 °F 73.4 °F 74% 30.17 in 10.0 mi East 9.2 mph - N/A   Scattered Clouds
12:58 PM 82.4 °F 88.2 °F 73.4 °F 74% 30.18 in 10.0 mi East 10.4 mph - N/A   Partly Cloudy
1:58 PM 82.4 °F 88.2 °F 73.4 °F 74% 30.17 in 10.0 mi East 10.4 mph - N/A   Scattered Clouds
2:58 PM 86.0 °F 93.4 °F 73.4 °F 66% 30.15 in 10.0 mi East 10.4 mph - N/A   Scattered Clouds
3:58 PM 84.2 °F 90.9 °F 73.4 °F 70% 30.15 in 10.0 mi East 11.5 mph - N/A   Mostly Cloudy
4:36 PM 84.2 °F 90.9 °F 73.4 °F 70% 30.14 in 10.0 mi East 10.4 mph - N/A Rain Light Rain
4:41 PM 80.6 °F 86.2 °F 75.2 °F 84% 30.14 in 2.0 mi East 10.4 mph 23.0 mph N/A Rain Heavy Rain
4:46 PM 78.8 °F - 73.4 °F 83% 30.14 in 2.0 mi ENE 9.2 mph 23.0 mph N/A Rain Light Rain
4:51 PM 78.8 °F - 73.4 °F 83% 30.14 in 9.0 mi ENE 8.1 mph - N/A Rain Light Rain
4:56 PM 78.8 °F - 73.4 °F 83% 30.14 in 10.0 mi ENE 5.8 mph - N/A   Overcast
4:58 PM 78.8 °F - 73.4 °F 83% 30.15 in 10.0 mi ENE 5.8 mph - 0.04 in   Overcast
5:53 PM 80.6 °F 85.4 °F 73.4 °F 79% 30.15 in 10.0 mi South 6.9 mph - N/A   Mostly Cloudy
5:58 PM 80.6 °F 86.2 °F 75.2 °F 84% 30.16 in 10.0 mi SSE 9.2 mph - N/A   Mostly Cloudy
6:03 PM 78.8 °F - 75.2 °F 89% 30.15 in 10.0 mi SSE 8.1 mph - N/A   Mostly Cloudy
6:32 PM 78.8 °F - 73.4 °F 83% 30.15 in 4.0 mi SE 11.5 mph - N/A Rain Light Rain
6:37 PM 77.0 °F - 73.4 °F 89% 30.15 in 2.5 mi ESE 5.8 mph - N/A Rain Rain
6:42 PM 77.0 °F - 73.4 °F 89% 30.15 in 4.0 mi ESE 5.8 mph - N/A Rain Light Rain
6:47 PM 77.0 °F - 73.4 °F 89% 30.15 in 10.0 mi East 4.6 mph - N/A   Mostly Cloudy
6:58 PM 77.0 °F - 73.4 °F 89% 30.16 in 10.0 mi East 4.6 mph - 0.02 in   Scattered Clouds
7:58 PM 77.0 °F - 75.2 °F 94% 30.17 in 10.0 mi ESE 6.9 mph - N/A   Partly Cloudy
8:58 PM 77.0 °F - 75.2 °F 94% 30.17 in 10.0 mi ESE 4.6 mph - N/A   Partly Cloudy
9:13 PM 77.0 °F - 75.2 °F 94% 30.17 in 10.0 mi East 4.6 mph - N/A   Mostly Cloudy
9:18 PM 77.0 °F - 75.2 °F 94% 30.17 in 10.0 mi East 5.8 mph - N/A   Mostly Cloudy
9:23 PM 77.0 °F - 75.2 °F 94% 30.18 in 10.0 mi East 3.5 mph - N/A   Mostly Cloudy
9:43 PM 77.0 °F - 75.2 °F 94% 30.18 in 10.0 mi East 5.8 mph - N/A   Overcast
9:53 PM 77.0 °F - 75.2 °F 94% 30.18 in 10.0 mi East 4.6 mph - N/A   Overcast
9:58 PM 77.0 °F - 75.2 °F 94% 30.19 in 10.0 mi ESE 3.5 mph - N/A   Overcast
10:18 PM 77.0 °F - 75.2 °F 94% 30.19 in 10.0 mi ENE 4.6 mph - N/A   Mostly Cloudy
10:58 PM 75.2 °F - 73.4 °F 94% 30.20 in 10.0 mi NE 4.6 mph - N/A   Clear
11:58 PM 75.2 °F - 73.4 °F 94% 30.19 in 10.0 mi NE 4.6 mph - N/A   Clear